Stanley, ND

4:34 AM CST on January 19, 2018 (GMT -0600)
Stanley

Weather History for K08D - January, 2013

Change the Weather History Date:

Friday, January 11, 2013

  Actual Average (KMIB) Record (KMIB)
Temperature  
Mean Temperature 8 °F -  
Max Temperature 15 °F 15 °F 44 °F (2006)
Min Temperature 1 °F 0 °F -27 °F (1997)
Degree Days  
Heating Degree Days 57    
Moisture  
Dew Point 6 °F    
Average Humidity 90    
Maximum Humidity 100    
Minimum Humidity 78    
Precipitation  
Precipitation 2.69 in - - ()
Sea Level Pressure  
Sea Level Pressure 29.68 in    
Wind  
Wind Speed 20 mph (NNE)    
Max Wind Speed 33 mph    
Max Gust Speed 40 mph    
Visibility 4 miles    
Events Rain , Snow    
Averages and records for this station are not official NWS values.
T = Trace of Precipitation, MM = Missing Value Source: NWS Daily Summary

Daily Weather History Graph

Daily Weather History Graph

Search for Another Location

Airport or City:

Trip Planner

Search our weather history database for the weather conditions in past years. The results will help you decide how hot, cold, wet, or windy it might be!

Date:

Astronomy

Jan. 11, 2013 Rise Set
Actual Time 8:37 AM CST 5:17 PM CST
Civil Twilight 8:02 AM CST 5:53 PM CST
Nautical Twilight 7:23 AM CST 6:32 PM CST
Astronomical Twilight 6:45 AM CST 7:10 PM CST
Moon 8:08 AM CST (1/11) 5:43 PM CST (1/11)
Length of Visible Light 9h 51m
Length of Day
8h 40m
Waning Crescent, 0% of the Moon is Illuminated
Jan 11
Waning Crescent
Jan 11
New
Jan 18
First Quarter
Jan 26
Full
Feb 3
Last Quarter

Hourly Weather History & Observations

Time (CST) Temp. Windchill Dew Point Humidity Pressure Visibility Wind Dir Wind Speed Gust Speed Precip Events Conditions
12:15 AM 15.8 °F -0.6 °F 15.8 °F 100% 29.58 in 3.0 mi NNE 18.4 mph 26.5 mph N/A Rain Light Freezing Rain
12:35 AM 15.8 °F -0.2 °F 14.0 °F 93% 29.58 in 3.0 mi NNE 17.3 mph 28.8 mph N/A Rain Light Freezing Rain
12:55 AM 15.8 °F -1.1 °F 14.0 °F 93% 29.59 in 4.0 mi NNE 19.6 mph 28.8 mph N/A Rain Light Freezing Rain
1:15 AM 14.0 °F -2.0 °F 14.0 °F 100% 29.60 in 5.0 mi NNE 16.1 mph 28.8 mph N/A Rain Light Freezing Rain
1:35 AM 14.0 °F -2.0 °F 14.0 °F 100% 29.60 in 3.0 mi NNE 16.1 mph 27.6 mph N/A Snow Light Snow
1:55 AM 14.0 °F -4.7 °F 14.0 °F 100% 29.60 in 7.0 mi NNE 23.0 mph 29.9 mph 0.01 in Snow Light Snow
2:15 AM 14.0 °F -3.4 °F 14.0 °F 100% 29.60 in 6.0 mi North 19.6 mph 28.8 mph N/A Snow Light Snow
2:35 AM 14.0 °F -1.4 °F 12.2 °F 93% 29.61 in 5.0 mi NNE 15.0 mph 26.5 mph 0.01 in Snow Light Snow
2:55 AM 14.0 °F -3.9 °F 12.2 °F 93% 29.61 in 4.0 mi NNE 20.7 mph 25.3 mph 0.05 in Snow Light Snow
3:15 AM 14.0 °F -3.9 °F 10.4 °F 86% 29.62 in 5.0 mi NNE 20.7 mph 25.3 mph 0.02 in Snow Light Snow
3:35 AM 12.2 °F -6.7 °F 10.4 °F 92% 29.62 in 3.0 mi NNE 21.9 mph 28.8 mph 0.08 in Snow Light Snow
3:55 AM 12.2 °F -6.3 °F 10.4 °F 92% 29.62 in 7.0 mi NNE 20.7 mph 27.6 mph 0.11 in Snow Light Snow
4:15 AM 12.2 °F -3.7 °F 10.4 °F 92% 29.63 in 5.0 mi NNE 15.0 mph 23.0 mph 0.02 in Snow Light Snow
4:35 AM 12.2 °F -4.8 °F 10.4 °F 92% 29.62 in 5.0 mi NNE 17.3 mph 24.2 mph 0.05 in Snow Light Snow
4:55 AM 12.2 °F -3.7 °F 10.4 °F 92% 29.62 in 8.0 mi NNE 15.0 mph 23.0 mph 0.09 in Snow Light Snow
5:15 AM 10.4 °F -7.7 °F 10.4 °F 100% 29.62 in 10.0 mi NNE 18.4 mph 28.8 mph 0.01 in Snow Light Snow
5:35 AM 10.4 °F -7.2 °F 10.4 °F 100% 29.62 in 10.0 mi NNE 17.3 mph 24.2 mph 0.03 in Snow Light Snow
5:55 AM 10.4 °F -6.6 °F 8.6 °F 92% 29.62 in 10.0 mi NNE 16.1 mph 24.2 mph 0.04 in Snow Light Snow
6:15 AM 10.4 °F -7.2 °F 8.6 °F 92% 29.63 in 10.0 mi NNE 17.3 mph 23.0 mph 0.01 in Snow Light Snow
6:35 AM 10.4 °F -5.4 °F 8.6 °F 92% 29.63 in 8.0 mi NNE 13.8 mph 20.7 mph 0.03 in Snow Light Snow
6:55 AM 10.4 °F -7.7 °F 8.6 °F 92% 29.63 in 6.0 mi NNE 18.4 mph 24.2 mph 0.06 in Snow Light Snow
7:15 AM 10.4 °F -7.2 °F 8.6 °F 92% 29.64 in 10.0 mi NNE 17.3 mph 26.5 mph 0.01 in Snow Light Snow
7:35 AM 10.4 °F -7.2 °F 8.6 °F 92% 29.63 in 10.0 mi NNE 17.3 mph 26.5 mph 0.03 in Snow Light Snow
7:55 AM 10.4 °F -6.0 °F 8.6 °F 92% 29.65 in 10.0 mi NNE 15.0 mph 25.3 mph 0.04 in Snow Light Snow
8:15 AM 10.4 °F -4.8 °F 8.6 °F 92% 29.66 in 10.0 mi NNE 12.7 mph 21.9 mph 0.01 in Snow Light Snow
8:35 AM 8.6 °F -10.5 °F 8.6 °F 100% 29.65 in 5.0 mi NNE 19.6 mph 26.5 mph 0.03 in Snow Light Snow
8:55 AM 10.4 °F -4.8 °F 8.6 °F 92% 29.67 in 9.0 mi NNE 12.7 mph 21.9 mph 0.05 in Snow Light Snow
9:15 AM 10.4 °F -5.4 °F 8.6 °F 92% 29.68 in 8.0 mi North 13.8 mph 19.6 mph 0.01 in Snow Light Snow
9:35 AM 8.6 °F -10.5 °F 6.8 °F 92% 29.67 in 7.0 mi NNE 19.6 mph 32.2 mph 0.04 in Snow Light Snow
9:55 AM 8.6 °F -11.0 °F 6.8 °F 92% 29.65 in 2.0 mi NNE 20.7 mph 32.2 mph 0.05 in Snow Light Snow
10:15 AM 8.6 °F -12.3 °F 6.8 °F 92% 29.65 in 2.5 mi North 24.2 mph 31.1 mph N/A Snow Light Snow
10:35 AM 8.6 °F -11.9 °F 6.8 °F 92% 29.65 in 2.0 mi NNE 23.0 mph 36.8 mph 0.01 in Snow Light Snow
10:55 AM 8.6 °F -10.0 °F 6.8 °F 92% 29.65 in 4.0 mi NNE 18.4 mph 32.2 mph 0.02 in Snow Light Snow
11:15 AM 8.6 °F -11.4 °F 6.8 °F 92% 29.64 in 2.0 mi NNE 21.9 mph 28.8 mph 0.02 in Snow Light Snow
11:35 AM 8.6 °F -10.5 °F 5.0 °F 85% 29.66 in 2.5 mi NNE 19.6 mph 28.8 mph 0.03 in Snow Light Snow
11:55 AM 8.6 °F -9.5 °F 5.0 °F 85% 29.68 in 3.0 mi NNE 17.3 mph 27.6 mph 0.03 in Snow Light Snow
12:15 PM 8.6 °F -9.5 °F 5.0 °F 85% 29.69 in 1.8 mi NNE 17.3 mph 26.5 mph N/A Snow Light Snow
12:35 PM 8.6 °F -11.0 °F 5.0 °F 85% 29.69 in 3.0 mi NNE 20.7 mph 27.6 mph 0.01 in Snow Light Snow
12:55 PM 6.8 °F -12.4 °F 5.0 °F 92% 29.69 in 2.5 mi NNE 18.4 mph 25.3 mph 0.02 in Snow Light Snow
1:15 PM 6.8 °F -11.3 °F 5.0 °F 92% 29.69 in 5.0 mi NNE 16.1 mph 24.2 mph N/A Snow Light Snow
1:35 PM 6.8 °F -13.8 °F 5.0 °F 92% 29.69 in 9.0 mi North 21.9 mph - 0.01 in Snow Light Snow
1:55 PM 6.8 °F -10.7 °F 5.0 °F 92% 29.69 in 5.0 mi NNE 15.0 mph 20.7 mph 0.01 in Snow Light Snow
2:15 PM 6.8 °F -12.9 °F 3.2 °F 85% 29.69 in 1.0 mi NNE 19.6 mph 29.9 mph N/A Snow Light Snow
2:35 PM 6.8 °F -12.4 °F 3.2 °F 85% 29.70 in 1.2 mi NNE 18.4 mph 28.8 mph 0.01 in Snow Light Snow
2:55 PM 6.8 °F -13.8 °F 5.0 °F 92% 29.70 in 1.8 mi NNE 21.9 mph 27.6 mph 0.02 in Snow Light Snow
3:15 PM 6.8 °F -12.9 °F 3.2 °F 85% 29.71 in 1.2 mi NNE 19.6 mph 26.5 mph N/A Snow Light Snow
3:35 PM 6.8 °F -14.3 °F 5.0 °F 92% 29.71 in 1.0 mi NNE 23.0 mph 29.9 mph 0.01 in Snow Light Snow
3:55 PM 6.8 °F -12.9 °F 5.0 °F 92% 29.72 in 1.0 mi NNE 19.6 mph 26.5 mph 0.04 in Snow Light Snow
4:15 PM 6.8 °F -12.4 °F 5.0 °F 92% 29.72 in 1.2 mi NNE 18.4 mph 28.8 mph 0.01 in Snow Light Snow
4:35 PM 8.6 °F -11.9 °F 5.0 °F 85% 29.71 in 1.2 mi NNE 23.0 mph 28.8 mph 0.03 in Snow Light Snow
4:55 PM 6.8 °F -15.5 °F 5.0 °F 92% 29.71 in 0.8 mi North 26.5 mph 32.2 mph 0.06 in Snow Light Snow
5:15 PM 6.8 °F -17.6 °F 5.0 °F 92% 29.71 in 0.5 mi North 33.4 mph 36.8 mph 0.03 in Snow Snow
5:35 PM 6.8 °F -16.6 °F 5.0 °F 92% 29.71 in 0.2 mi North 29.9 mph 36.8 mph 0.09 in Snow Heavy Snow
5:55 PM 6.8 °F -16.6 °F 5.0 °F 92% 29.71 in 1.0 mi North 29.9 mph 36.8 mph 0.14 in Snow Light Snow
6:15 PM 6.8 °F -16.2 °F 3.2 °F 85% 29.73 in 1.2 mi North 28.8 mph 38.0 mph 0.03 in Snow Light Snow
6:35 PM 6.8 °F -16.6 °F 3.2 °F 85% 29.74 in 1.2 mi North 29.9 mph 34.5 mph 0.08 in Snow Light Snow
6:55 PM 5.0 °F -18.7 °F 1.4 °F 85% 29.74 in 1.2 mi North 28.8 mph 36.8 mph 0.16 in Snow Light Snow
7:15 PM 5.0 °F -19.7 °F 1.4 °F 85% 29.75 in 1.2 mi North 32.2 mph 39.1 mph 0.04 in Snow Light Snow
7:35 PM 5.0 °F -20.1 °F 1.4 °F 85% 29.74 in 0.8 mi North 33.4 mph 39.1 mph 0.13 in Snow Light Snow
7:55 PM 5.0 °F -18.7 °F 1.4 °F 85% 29.75 in 1.8 mi North 28.8 mph 36.8 mph 0.17 in Snow Light Snow
8:15 PM 5.0 °F -19.0 °F 1.4 °F 85% 29.75 in 1.0 mi North 29.9 mph 39.1 mph 0.02 in Snow Light Snow
8:35 PM 5.0 °F -19.4 °F 1.4 °F 85% 29.75 in 0.5 mi North 31.1 mph 39.1 mph 0.16 in Snow Snow
8:55 PM 5.0 °F -18.7 °F 1.4 °F 85% 29.76 in 0.5 mi North 28.8 mph 40.3 mph 0.31 in Snow Snow
9:15 PM 5.0 °F -19.0 °F 1.4 °F 85% 29.77 in 0.5 mi North 29.9 mph 35.7 mph 0.08 in Snow Snow
9:55 PM 5.0 °F -20.1 °F 1.4 °F 85% 29.78 in 0.2 mi North 33.4 mph 40.3 mph 0.44 in Rain Light Freezing Rain
10:15 PM 5.0 °F -18.7 °F -0.4 °F 78% 29.80 in 0.5 mi North 28.8 mph 35.7 mph 0.11 in Rain Light Freezing Rain
10:35 PM 5.0 °F -17.9 °F -0.4 °F 78% 29.81 in 0.8 mi North 26.5 mph 35.7 mph 0.22 in Snow Light Snow
10:55 PM 3.2 °F -20.3 °F -0.4 °F 85% 29.82 in 0.8 mi North 26.5 mph 33.4 mph 0.34 in Snow Light Snow
11:15 PM 5.0 °F -17.1 °F -0.4 °F 78% 29.83 in 0.8 mi NNW 24.2 mph 32.2 mph 0.14 in Snow Light Snow
11:35 PM 1.4 °F -21.0 °F -0.4 °F 92% 29.84 in 1.5 mi NNW 21.9 mph 31.1 mph 0.32 in Snow Light Snow
11:55 PM 1.4 °F -21.4 °F -0.4 °F 92% 29.84 in 2.0 mi NNW 23.0 mph 29.9 mph 0.43 in Snow Light Snow